SCISAT 1 (27858 NORAD) Tracking and Keplerian Element Data

This shows tracking and keplerian element data for the satellite.

Feedback or suggestion? Click here.




ElementValue
Catalog27858
NameSCISAT 1
Epoch Orbit15773
Epoch Day35.16512194
Epoch Year2025
RAAN80.086
Inclination73.9295
Eccentricity0.0008981
Argument of Perigee261.6709
Mean Anonmoly98.3448
Mean Motion14.80303061
Decay Rate1.606E-05
L11 27858U 03036A 25035.16512194 .00001606 00000+0 21538-3 0 9990
L22 27858 73.9295 80.0860 0008981 261.6709 98.3448 14.80303061157731



Live tracking and technical data element details for SCISAT 1 (NORAD 27858). SCISAT 1 can be tracked NOW for your location showing map with azimuth and elevation plus other details from your city location.







IsCatalogInMostPopularTable: catalog: 27858, numindb: 518
Update: records affected: 1



GetName: 27858 SCISAT 1

Hit Count: updated at: Fri, 16 May 2025 10:50:22 GMT